Location: Complexul Astronomic Baia Mare
(47.6577°N, 23.5639°E)
Time: 06:48:15
(UTC+03:00)

ISS - Pass Details

Date: 31 May 2017
Orbit: 402 x 408 km, 51.6° (Epoch: 29 May)

Event Time Altitude Azimuth Distance (km) Brightness Sun altitude
Rises 00:07:10 0° 290° (WNW) 2,334 0.6 -18.4°
Reaches altitude 10° 00:09:18 10° 296° (WNW) 1,472 -0.4 -18.5°
Maximum altitude 00:12:31 49° 13° (NNE) 537 -2.9 -18.6°
Enters shadow 00:14:28 21° 81° (E) 987 -2.0 -18.7°
